Time,TemperatureF,DewpointF,PressureIn,WindDirection,WindDirectionDegrees,WindSpeedMPH,WindSpeedGustMPH,Humidity,HourlyPrecipIn,Conditions,Clouds,dailyrainin,SoftwareType,DateUTC
2013-03-03 00:00:00,28.0,19.5,29.99,NE,46,2.0,2.0,70,0.00,,OVC055,0.00,VWS V14.01,2013-03-03 05:00:00,
2013-03-03 00:05:00,27.9,19.4,29.98,NE,51,2.0,5.0,70,0.00,,OVC055,0.00,VWS V14.01,2013-03-03 05:05:00,
2013-03-03 00:10:00,27.9,19.4,29.98,NNE,24,7.0,8.0,70,0.00,,OVC055,0.00,VWS V14.01,2013-03-03 05:10:00,
2013-03-03 00:15:00,27.8,19.3,29.98,NE,44,2.0,8.0,70,0.00,,OVC055,0.00,VWS V14.01,2013-03-03 05:15:00,
2013-03-03 00:20:00,27.8,19.3,29.98,NE,52,1.0,8.0,70,0.00,,OVC055,0.00,VWS V14.01,2013-03-03 05:20:00,
2013-03-03 00:25:00,27.8,19.3,29.98,North,360,4.0,8.0,70,0.00,,OVC055,0.00,VWS V14.01,2013-03-03 05:25:00,
2013-03-03 00:30:00,27.7,19.2,29.98,NE,56,2.0,3.0,70,0.00,,OVC055,0.00,VWS V14.01,2013-03-03 05:30:00,
2013-03-03 00:35:00,27.6,19.1,29.98,NE,34,1.0,4.0,70,0.00,,OVC055,0.00,VWS V14.01,2013-03-03 05:35:00,
2013-03-03 00:40:00,27.6,19.1,29.98,NNE,30,0.0,4.0,70,0.00,,OVC055,0.00,VWS V14.01,2013-03-03 05:40:00,
2013-03-03 00:45:00,27.5,19.0,29.98,NE,36,1.0,4.0,70,0.00,,OVC055,0.00,VWS V14.01,2013-03-03 05:45:00,
2013-03-03 00:50:00,27.3,18.8,29.98,NE,47,0.0,4.0,70,0.00,,OVC055,0.00,VWS V14.01,2013-03-03 05:50:00,
2013-03-03 00:55:00,27.2,18.7,29.98,NE,47,0.0,4.0,70,0.00,,OVC055,0.00,VWS V14.01,2013-03-03 05:55:00,
2013-03-03 01:00:00,27.1,18.6,29.98,ENE,57,0.0,2.0,70,0.00,,OVC055,0.00,VWS V14.01,2013-03-03 06:00:00,
2013-03-03 01:05:00,27.1,19.0,29.98,ENE,57,0.0,4.0,71,0.00,,OVC055,0.00,VWS V14.01,2013-03-03 06:05:00,
2013-03-03 01:10:00,26.9,19.4,29.98,ENE,64,0.0,4.0,73,0.00,,OVC055,0.00,VWS V14.01,2013-03-03 06:10:00,
2013-03-03 01:15:00,26.7,19.5,29.98,ENE,64,0.0,4.0,74,0.00,,OVC055,0.00,VWS V14.01,2013-03-03 06:15:00,
2013-03-03 01:20:00,26.5,19.4,29.98,ENE,64,0.0,4.0,74,0.00,,OVC055,0.00,VWS V14.01,2013-03-03 06:20:00,
2013-03-03 01:25:00,26.5,19.4,29.98,ENE,64,0.0,4.0,74,0.00,,OVC055,0.00,VWS V14.01,2013-03-03 06:25:00,
2013-03-03 01:30:00,26.5,19.4,29.98,ENE,64,1.0,1.0,74,0.00,,OVC055,0.00,VWS V14.01,2013-03-03 06:30:00,
2013-03-03 01:35:00,26.6,19.4,29.98,ENE,64,0.0,1.0,74,0.00,,OVC055,0.00,VWS V14.01,2013-03-03 06:35:00,
2013-03-03 01:40:00,26.5,19.4,29.98,ENE,64,2.0,2.0,74,0.00,,OVC055,0.00,VWS V14.01,2013-03-03 06:40:00,
2013-03-03 01:45:00,26.5,19.4,29.98,ENE,64,1.0,2.0,74,0.00,,OVC055,0.00,VWS V14.01,2013-03-03 06:45:00,
2013-03-03 01:50:00,26.5,19.0,29.98,ENE,65,0.0,3.0,73,0.00,,OVC055,0.00,VWS V14.01,2013-03-03 06:50:00,
2013-03-03 01:55:00,26.5,19.0,29.98,ENE,65,1.0,3.0,73,0.00,,OVC055,0.00,VWS V14.01,2013-03-03 06:55:00,
2013-03-03 02:00:00,26.5,19.4,29.98,ENE,65,0.0,1.0,74,0.00,,OVC055,0.00,VWS V14.01,2013-03-03 07:00:00,
2013-03-03 02:05:00,26.4,19.2,29.98,NE,44,3.0,4.0,74,0.00,,OVC055,0.00,VWS V14.01,2013-03-03 07:05:00,
2013-03-03 02:10:00,26.4,19.2,29.98,NE,52,0.0,5.0,74,0.00,,OVC055,0.00,VWS V14.01,2013-03-03 07:10:00,
2013-03-03 02:15:00,26.4,19.2,29.99,NE,53,0.0,5.0,74,0.00,,OVC055,0.00,VWS V14.01,2013-03-03 07:15:00,
2013-03-03 02:20:00,26.3,18.8,29.98,NE,53,2.0,5.0,73,0.00,,OVC055,0.00,VWS V14.01,2013-03-03 07:20:00,
2013-03-03 02:25:00,26.3,18.8,29.98,NE,56,1.0,5.0,73,0.00,,OVC055,0.00,VWS V14.01,2013-03-03 07:25:00,
2013-03-03 02:30:00,26.3,18.8,29.98,ENE,57,1.0,2.0,73,0.00,,OVC055,0.00,VWS V14.01,2013-03-03 07:30:00,
2013-03-03 02:35:00,26.3,18.8,29.98,NE,46,1.0,3.0,73,0.00,,OVC055,0.00,VWS V14.01,2013-03-03 07:35:00,
2013-03-03 02:39:00,26.2,18.7,29.98,ENE,62,0.0,3.0,73,0.00,,OVC055,0.00,VWS V14.01,2013-03-03 07:39:00,
2013-03-03 02:44:00,26.2,18.4,29.98,NE,42,1.0,7.0,72,0.00,,OVC055,0.00,VWS V14.01,2013-03-03 07:44:00,
2013-03-03 02:49:00,26.2,18.7,29.98,NE,54,0.0,7.0,73,0.00,,OVC055,0.00,VWS V14.01,2013-03-03 07:49:00,
2013-03-03 02:54:00,26.1,19.0,29.98,NNE,30,0.0,7.0,74,0.00,,OVC055,0.00,VWS V14.01,2013-03-03 07:54:00,
2013-03-03 02:59:00,25.9,19.1,29.98,NNE,30,0.0,0.0,75,0.00,,OVC055,0.00,VWS V14.01,2013-03-03 07:59:00,
2013-03-03 03:00:00,24.8,18.6,29.97,ENE,57,2.0,4.0,77,0.00,,OVC055,0.00,VWS V14.01,2013-03-03 08:00:00,
2013-03-03 03:04:00,25.4,18.6,29.98,NNE,30,0.0,1.0,75,0.00,,OVC055,0.00,VWS V14.01,2013-03-03 08:04:00,
2013-03-03 03:09:00,25.2,18.7,29.98,NNE,30,0.0,1.0,76,0.00,,OVC055,0.00,VWS V14.01,2013-03-03 08:09:00,
2013-03-03 03:14:00,25.0,18.8,29.97,NNE,30,0.0,1.0,77,0.00,,OVC055,0.00,VWS V14.01,2013-03-03 08:14:00,
2013-03-03 03:19:00,25.1,18.6,29.97,NNE,30,0.0,3.0,76,0.00,,OVC055,0.00,VWS V14.01,2013-03-03 08:19:00,
2013-03-03 03:24:00,25.4,18.6,29.97,NE,40,0.0,3.0,75,0.00,,OVC055,0.00,VWS V14.01,2013-03-03 08:24:00,
2013-03-03 03:29:00,25.4,18.9,29.97,NE,49,0.0,1.0,76,0.00,,OVC055,0.00,VWS V14.01,2013-03-03 08:29:00,
2013-03-03 03:30:00,24.9,18.4,29.97,ENE,57,1.0,6.0,76,0.00,,OVC055,0.00,VWS V14.01,2013-03-03 08:30:00,
2013-03-03 03:34:00,25.3,18.5,29.97,NE,49,1.0,2.0,75,0.00,,OVC055,0.00,VWS V14.01,2013-03-03 08:34:00,
2013-03-03 03:39:00,25.3,18.5,29.98,NE,50,2.0,4.0,75,0.00,,OVC055,0.00,VWS V14.01,2013-03-03 08:39:00,
2013-03-03 03:44:00,25.4,18.6,29.97,NE,55,2.0,4.0,75,0.00,,OVC055,0.00,VWS V14.01,2013-03-03 08:44:00,
2013-03-03 03:49:00,25.2,18.7,29.97,NE,55,0.0,4.0,76,0.00,,OVC055,0.00,VWS V14.01,2013-03-03 08:49:00,
2013-03-03 03:54:00,24.9,18.7,29.97,NE,55,0.0,4.0,77,0.00,,OVC055,0.00,VWS V14.01,2013-03-03 08:54:00,
2013-03-03 03:59:00,24.8,18.6,29.97,NE,47,2.0,4.0,77,0.00,,OVC055,0.00,VWS V14.01,2013-03-03 08:59:00,
2013-03-03 04:00:00,24.8,18.0,29.98,ENE,57,1.0,4.0,75,0.00,,OVC055,0.00,VWS V14.01,2013-03-03 09:00:00,
2013-03-03 04:04:00,24.9,18.7,29.97,NE,54,1.0,4.0,77,0.00,,OVC055,0.00,VWS V14.01,2013-03-03 09:04:00,
2013-03-03 04:09:00,24.8,18.6,29.97,NE,54,1.0,4.0,77,0.00,,OVC055,0.00,VWS V14.01,2013-03-03 09:09:00,
2013-03-03 04:14:00,24.8,18.6,29.97,NE,39,1.0,4.0,77,0.00,,OVC055,0.00,VWS V14.01,2013-03-03 09:14:00,
2013-03-03 04:19:00,24.8,18.3,29.97,NE,42,1.0,6.0,76,0.00,,OVC055,0.00,VWS V14.01,2013-03-03 09:19:00,
2013-03-03 04:24:00,24.9,18.4,29.97,NE,56,1.0,6.0,76,0.00,,OVC055,0.00,VWS V14.01,2013-03-03 09:24:00,
2013-03-03 04:29:00,24.9,18.4,29.97,ENE,57,1.0,1.0,76,0.00,,OVC055,0.00,VWS V14.01,2013-03-03 09:29:00,
2013-03-03 04:30:00,24.4,17.3,29.99,NE,54,1.0,4.0,74,0.00,,OVC055,0.00,VWS V14.01,2013-03-03 09:30:00,
2013-03-03 04:34:00,24.9,18.1,29.97,ENE,58,1.0,2.0,75,0.00,,OVC055,0.00,VWS V14.01,2013-03-03 09:34:00,
2013-03-03 04:39:00,25.0,18.2,29.98,NE,48,0.0,4.0,75,0.00,,OVC055,0.00,VWS V14.01,2013-03-03 09:39:00,
2013-03-03 04:44:00,24.9,18.1,29.97,NE,48,1.0,4.0,75,0.00,,OVC055,0.00,VWS V14.01,2013-03-03 09:44:00,
2013-03-03 04:49:00,24.9,18.1,29.98,NE,56,2.0,4.0,75,0.00,,OVC055,0.00,VWS V14.01,2013-03-03 09:49:00,
2013-03-03 04:54:00,24.9,18.1,29.98,ENE,57,1.0,4.0,75,0.00,,OVC055,0.00,VWS V14.01,2013-03-03 09:54:00,
2013-03-03 04:59:00,24.8,18.0,29.98,ENE,57,0.0,1.0,75,0.00,,OVC055,0.00,VWS V14.01,2013-03-03 09:59:00,
2013-03-03 05:00:00,24.4,16.7,29.99,NNW,331,3.0,6.0,72,0.00,,OVC055,0.00,VWS V14.01,2013-03-03 10:00:00,
2013-03-03 05:04:00,24.6,18.1,29.98,ENE,57,2.0,3.0,76,0.00,,OVC055,0.00,VWS V14.01,2013-03-03 10:04:00,
2013-03-03 05:09:00,24.5,17.7,29.98,ENE,58,1.0,3.0,75,0.00,,OVC055,0.00,VWS V14.01,2013-03-03 10:09:00,
2013-03-03 05:14:00,24.5,17.4,29.98,ENE,59,1.0,3.0,74,0.00,,OVC055,0.00,VWS V14.01,2013-03-03 10:14:00,
2013-03-03 05:19:00,24.5,17.4,29.98,ENE,61,2.0,3.0,74,0.00,,OVC055,0.00,VWS V14.01,2013-03-03 10:19:00,
2013-03-03 05:24:00,24.5,17.4,29.99,ENE,61,0.0,3.0,74,0.00,,OVC055,0.00,VWS V14.01,2013-03-03 10:24:00,
2013-03-03 05:29:00,24.4,17.3,29.99,ENE,57,2.0,2.0,74,0.00,,OVC055,0.00,VWS V14.01,2013-03-03 10:29:00,
2013-03-03 05:30:00,24.0,17.2,29.99,ENE,59,1.0,5.0,75,0.00,,OVC055,0.00,VWS V14.01,2013-03-03 10:30:00,
2013-03-03 05:34:00,24.3,17.2,29.99,ENE,74,3.0,3.0,74,0.00,,OVC055,0.00,VWS V14.01,2013-03-03 10:34:00,
2013-03-03 05:39:00,24.3,17.2,29.99,ENE,71,0.0,4.0,74,0.00,,OVC055,0.00,VWS V14.01,2013-03-03 10:39:00,
2013-03-03 05:44:00,24.3,17.2,29.99,ENE,60,1.0,4.0,74,0.00,,OVC055,0.00,VWS V14.01,2013-03-03 10:44:00,
2013-03-03 05:49:00,24.3,16.9,29.99,ENE,61,0.0,5.0,73,0.00,,OVC055,0.00,VWS V14.01,2013-03-03 10:49:00,
2013-03-03 05:54:00,24.3,16.9,29.99,ENE,59,4.0,5.0,73,0.00,,OVC055,0.00,VWS V14.01,2013-03-03 10:54:00,
2013-03-03 05:59:00,24.4,16.7,29.99,NNE,28,1.0,3.0,72,0.00,,OVC055,0.00,VWS V14.01,2013-03-03 10:59:00,
2013-03-03 06:00:00,23.7,17.6,30.00,NE,46,1.0,5.0,77,0.00,,OVC055,0.00,VWS V14.01,2013-03-03 11:00:00,
2013-03-03 06:04:00,24.4,16.7,29.99,ENE,71,2.0,4.0,72,0.00,,OVC055,0.00,VWS V14.01,2013-03-03 11:04:00,
2013-03-03 06:09:00,24.4,16.7,29.99,ENE,71,0.0,4.0,72,0.00,,OVC055,0.00,VWS V14.01,2013-03-03 11:09:00,
2013-03-03 06:14:00,24.3,16.9,30.00,NE,44,1.0,4.0,73,0.00,,OVC055,0.00,VWS V14.01,2013-03-03 11:14:00,
2013-03-03 06:19:00,24.2,17.1,29.99,NE,49,3.0,5.0,74,0.00,,OVC055,0.00,VWS V14.01,2013-03-03 11:19:00,
2013-03-03 06:24:00,24.2,17.4,29.99,NE,54,3.0,5.0,75,0.00,,OVC055,0.00,VWS V14.01,2013-03-03 11:24:00,
2013-03-03 06:29:00,24.0,17.2,29.99,ENE,59,0.0,1.0,75,0.00,,OVC055,0.00,VWS V14.01,2013-03-03 11:29:00,
2013-03-03 06:30:00,23.7,17.6,30.00,ENE,57,1.0,4.0,77,0.00,,OVC055,0.00,VWS V14.01,2013-03-03 11:30:00,
2013-03-03 06:34:00,24.0,17.5,29.99,ENE,59,3.0,3.0,76,0.00,,OVC055,0.00,VWS V14.01,2013-03-03 11:34:00,
2013-03-03 06:39:00,23.9,17.5,29.99,ENE,66,3.0,5.0,76,0.00,,OVC055,0.00,VWS V14.01,2013-03-03 11:39:00,
2013-03-03 06:44:00,23.9,17.5,30.00,ENE,72,4.0,5.0,76,0.00,,OVC055,0.00,VWS V14.01,2013-03-03 11:44:00,
2013-03-03 06:49:00,23.8,17.7,29.99,NE,47,2.0,5.0,77,0.00,,OVC055,0.00,VWS V14.01,2013-03-03 11:49:00,
2013-03-03 06:54:00,23.8,17.7,30.00,NE,51,1.0,5.0,77,0.00,,OVC055,0.00,VWS V14.01,2013-03-03 11:54:00,
2013-03-03 06:59:00,23.7,17.6,30.00,NE,46,1.0,5.0,77,0.00,,OVC055,0.00,VWS V14.01,2013-03-03 11:59:00,
2013-03-03 07:00:00,24.4,18.2,30.01,NE,47,1.0,5.0,77,0.00,,OVC055,0.00,VWS V14.01,2013-03-03 12:00:00,
2013-03-03 07:04:00,23.7,17.6,30.00,NE,46,0.0,2.0,77,0.00,,OVC055,0.00,VWS V14.01,2013-03-03 12:04:00,
2013-03-03 07:09:00,23.6,17.2,30.00,NE,46,1.0,3.0,76,0.00,,OVC055,0.00,VWS V14.01,2013-03-03 12:09:00,
2013-03-03 07:14:00,23.6,17.5,30.00,NE,46,1.0,3.0,77,0.00,,OVC055,0.00,VWS V14.01,2013-03-03 12:14:00,
2013-03-03 07:19:00,23.6,17.2,30.00,NE,48,4.0,4.0,76,0.00,,OVC055,0.00,VWS V14.01,2013-03-03 12:19:00,
2013-03-03 07:24:00,23.7,17.6,30.00,ENE,58,2.0,4.0,77,0.00,,OVC055,0.00,VWS V14.01,2013-03-03 12:24:00,
2013-03-03 07:29:00,23.7,17.6,30.00,ENE,57,1.0,4.0,77,0.00,,OVC055,0.00,VWS V14.01,2013-03-03 12:29:00,
2013-03-03 07:30:00,25.3,18.2,30.02,NE,43,2.0,4.0,74,0.00,,OVC055,0.00,VWS V14.01,2013-03-03 12:30:00,
2013-03-03 07:34:00,23.9,17.8,30.00,NE,56,2.0,4.0,77,0.00,,OVC055,0.00,VWS V14.01,2013-03-03 12:34:00,
2013-03-03 07:39:00,24.0,17.9,30.00,ENE,57,2.0,4.0,77,0.00,,OVC055,0.00,VWS V14.01,2013-03-03 12:39:00,
2013-03-03 07:44:00,24.1,18.0,30.01,ENE,67,2.0,4.0,77,0.00,,OVC055,0.00,VWS V14.01,2013-03-03 12:44:00,
2013-03-03 07:49:00,24.2,18.0,30.01,NE,47,2.0,5.0,77,0.00,,OVC055,0.00,VWS V14.01,2013-03-03 12:49:00,
2013-03-03 07:54:00,24.3,18.1,30.01,NE,47,2.0,5.0,77,0.00,,OVC055,0.00,VWS V14.01,2013-03-03 12:54:00,
2013-03-03 07:59:00,24.4,18.2,30.01,NE,47,1.0,5.0,77,0.00,,OVC055,0.00,VWS V14.01,2013-03-03 12:59:00,
2013-03-03 08:00:00,27.0,18.2,30.02,NE,39,2.0,6.0,69,0.00,,OVC055,0.00,VWS V14.01,2013-03-03 13:00:00,
2013-03-03 08:04:00,24.5,18.0,30.01,ENE,57,1.0,3.0,76,0.00,,OVC055,0.00,VWS V14.01,2013-03-03 13:04:00,
2013-03-03 08:09:00,24.5,18.0,30.01,NE,44,1.0,4.0,76,0.00,,OVC055,0.00,VWS V14.01,2013-03-03 13:09:00,
2013-03-03 08:14:00,24.7,18.2,30.01,ENE,71,3.0,4.0,76,0.00,,OVC055,0.00,VWS V14.01,2013-03-03 13:14:00,
2013-03-03 08:19:00,24.9,18.1,30.01,ENE,62,3.0,4.0,75,0.00,,OVC055,0.00,VWS V14.01,2013-03-03 13:19:00,
2013-03-03 08:24:00,25.1,18.3,30.02,ENE,62,0.0,4.0,75,0.00,,OVC055,0.00,VWS V14.01,2013-03-03 13:24:00,
2013-03-03 08:29:00,25.3,18.2,30.02,NE,39,2.0,4.0,74,0.00,,OVC055,0.00,VWS V14.01,2013-03-03 13:29:00,
2013-03-03 08:30:00,28.5,16.0,30.02,ENE,58,7.0,10.0,59,0.00,,OVC055,0.00,VWS V14.01,2013-03-03 13:30:00,
2013-03-03 08:34:00,25.6,18.2,30.02,ENE,76,2.0,3.0,73,0.00,,OVC055,0.00,VWS V14.01,2013-03-03 13:34:00,
2013-03-03 08:39:00,25.8,18.0,30.02,ENE,78,2.0,3.0,72,0.00,,OVC055,0.00,VWS V14.01,2013-03-03 13:39:00,
2013-03-03 08:44:00,26.0,17.9,30.02,ENE,61,2.0,6.0,71,0.00,,OVC055,0.00,VWS V14.01,2013-03-03 13:44:00,
2013-03-03 08:49:00,26.4,18.0,30.02,ENE,59,0.0,6.0,70,0.00,,OVC055,0.00,VWS V14.01,2013-03-03 13:49:00,
2013-03-03 08:54:00,26.7,18.6,30.02,NE,37,2.0,6.0,71,0.00,,OVC055,0.00,VWS V14.01,2013-03-03 13:54:00,
2013-03-03 08:59:00,27.1,18.3,30.02,NE,39,2.0,6.0,69,0.00,,OVC055,0.00,VWS V14.01,2013-03-03 13:59:00,
2013-03-03 09:00:00,30.3,16.1,30.02,ENE,74,3.0,11.0,55,0.00,,OVC055,0.00,VWS V14.01,2013-03-03 14:00:00,
2013-03-03 09:04:00,27.4,18.2,30.02,SSE,156,0.0,3.0,68,0.00,,OVC055,0.00,VWS V14.01,2013-03-03 14:04:00,
2013-03-03 09:09:00,27.8,17.9,30.02,NE,52,2.0,4.0,66,0.00,,OVC055,0.00,VWS V14.01,2013-03-03 14:09:00,
2013-03-03 09:14:00,27.9,16.2,30.02,NE,51,4.0,7.0,61,0.00,,OVC055,0.00,VWS V14.01,2013-03-03 14:14:00,
2013-03-03 09:19:00,27.9,15.8,30.02,NNE,15,4.0,9.0,60,0.00,,OVC055,0.00,VWS V14.01,2013-03-03 14:19:00,
2013-03-03 09:24:00,28.2,16.5,30.02,NE,39,8.0,10.0,61,0.00,,OVC055,0.00,VWS V14.01,2013-03-03 14:24:00,
2013-03-03 09:29:00,28.5,16.0,30.02,NE,42,6.0,10.0,59,0.00,,OVC055,0.00,VWS V14.01,2013-03-03 14:29:00,
2013-03-03 09:30:00,31.1,16.4,30.02,NE,53,4.0,12.0,54,0.00,,OVC055,0.00,VWS V14.01,2013-03-03 14:30:00,
2013-03-03 09:34:00,28.6,16.1,30.02,NE,42,5.0,8.0,59,0.00,,OVC055,0.00,VWS V14.01,2013-03-03 14:34:00,
2013-03-03 09:39:00,28.8,15.5,30.02,NE,39,4.0,10.0,57,0.00,,OVC055,0.00,VWS V14.01,2013-03-03 14:39:00,
2013-03-03 09:44:00,29.3,16.0,30.02,NNE,24,5.0,10.0,57,0.00,,OVC055,0.00,VWS V14.01,2013-03-03 14:44:00,
2013-03-03 09:49:00,29.5,15.8,30.02,NE,42,4.0,10.0,56,0.00,,OVC055,0.00,VWS V14.01,2013-03-03 14:49:00,
2013-03-03 09:54:00,30.1,17.1,30.01,NE,51,7.0,11.0,58,0.00,,OVC055,0.00,VWS V14.01,2013-03-03 14:54:00,
2013-03-03 09:59:00,30.3,16.1,30.02,ENE,71,3.0,11.0,55,0.00,,OVC055,0.00,VWS V14.01,2013-03-03 14:59:00,
2013-03-03 10:00:00,31.6,16.0,30.01,NNE,20,8.0,12.0,52,0.00,,OVC055,0.00,VWS V14.01,2013-03-03 15:00:00,
2013-03-03 10:04:00,30.5,17.5,30.02,NE,54,3.0,5.0,58,0.00,,OVC055,0.00,VWS V14.01,2013-03-03 15:04:00,
2013-03-03 10:09:00,30.7,17.7,30.01,ENE,66,0.0,6.0,58,0.00,,OVC055,0.00,VWS V14.01,2013-03-03 15:09:00,
2013-03-03 10:14:00,31.1,18.1,30.02,NE,36,5.0,6.0,58,0.00,,OVC055,0.00,VWS V14.01,2013-03-03 15:14:00,
2013-03-03 10:19:00,31.2,17.8,30.02,NE,37,3.0,8.0,57,0.00,,OVC055,0.00,VWS V14.01,2013-03-03 15:19:00,
2013-03-03 10:24:00,31.2,16.5,30.02,NE,42,6.0,8.0,54,0.00,,OVC055,0.00,VWS V14.01,2013-03-03 15:24:00,
2013-03-03 10:29:00,31.1,16.0,30.02,NE,53,3.0,12.0,53,0.00,,OVC055,0.00,VWS V14.01,2013-03-03 15:29:00,
2013-03-03 10:30:00,33.7,16.1,30.01,East,86,0.0,12.0,48,0.00,,OVC055,0.00,VWS V14.01,2013-03-03 15:30:00,
2013-03-03 10:34:00,31.1,16.4,30.01,North,360,7.0,11.0,54,0.00,,OVC055,0.00,VWS V14.01,2013-03-03 15:34:00,
2013-03-03 10:39:00,31.5,15.9,30.01,NE,39,12.0,12.0,52,0.00,,OVC055,0.00,VWS V14.01,2013-03-03 15:39:00,
2013-03-03 10:44:00,31.2,15.2,30.01,NE,53,8.0,12.0,51,0.00,,OVC055,0.00,VWS V14.01,2013-03-03 15:44:00,
2013-03-03 10:48:00,31.0,15.4,30.01,NNE,28,5.0,12.0,52,0.00,,OVC055,0.00,VWS V14.01,2013-03-03 15:48:00,
2013-03-03 10:53:00,31.3,15.7,30.01,NNE,15,6.0,12.0,52,0.00,,OVC055,0.00,VWS V14.01,2013-03-03 15:53:00,
2013-03-03 10:58:00,31.6,16.0,30.01,NE,49,6.0,12.0,52,0.00,,OVC055,0.00,VWS V14.01,2013-03-03 15:58:00,
2013-03-03 11:00:00,36.3,19.5,30.00,ENE,63,2.0,7.0,50,0.00,,OVC055,0.00,VWS V14.01,2013-03-03 16:00:00,
2013-03-03 11:03:00,32.1,17.3,30.01,NE,55,2.0,9.0,54,0.00,,OVC055,0.00,VWS V14.01,2013-03-03 16:03:00,
2013-03-03 11:08:00,32.5,15.5,30.01,NE,39,7.0,9.0,49,0.00,,OVC055,0.00,VWS V14.01,2013-03-03 16:08:00,
2013-03-03 11:13:00,32.5,15.5,30.01,NE,43,5.0,12.0,49,0.00,,OVC055,0.00,VWS V14.01,2013-03-03 16:13:00,
2013-03-03 11:18:00,32.6,14.1,30.01,NNE,29,0.0,12.0,46,0.00,,OVC055,0.00,VWS V14.01,2013-03-03 16:18:00,
2013-03-03 11:23:00,33.0,16.9,30.01,NE,55,0.0,12.0,51,0.00,,OVC055,0.00,VWS V14.01,2013-03-03 16:23:00,
2013-03-03 11:28:00,33.6,17.0,30.01,ENE,77,1.0,12.0,50,0.00,,OVC055,0.00,VWS V14.01,2013-03-03 16:28:00,
2013-03-03 11:30:00,36.0,18.2,30.00,ENE,59,4.0,7.0,48,0.00,,OVC055,0.00,VWS V14.01,2013-03-03 16:30:00,
2013-03-03 11:33:00,34.6,16.9,30.01,NE,55,6.0,7.0,48,0.00,,OVC055,0.00,VWS V14.01,2013-03-03 16:33:00,
2013-03-03 11:38:00,34.5,16.9,30.01,NE,51,1.0,7.0,48,0.00,,OVC055,0.00,VWS V14.01,2013-03-03 16:38:00,
2013-03-03 11:43:00,35.6,18.3,30.01,ESE,111,2.0,7.0,49,0.00,,OVC055,0.00,VWS V14.01,2013-03-03 16:43:00,
2013-03-03 11:48:00,34.9,17.7,30.01,NNE,22,1.0,7.0,49,0.00,,OVC055,0.00,VWS V14.01,2013-03-03 16:48:00,
2013-03-03 11:53:00,35.1,18.4,30.01,NNE,20,1.0,7.0,50,0.00,,OVC055,0.00,VWS V14.01,2013-03-03 16:53:00,
2013-03-03 11:58:00,36.1,19.3,30.00,ENE,63,0.0,7.0,50,0.00,,OVC055,0.00,VWS V14.01,2013-03-03 16:58:00,
2013-03-03 12:00:00,37.9,20.0,29.99,NE,56,1.0,8.0,48,0.00,,OVC055,0.00,VWS V14.01,2013-03-03 17:00:00,
2013-03-03 12:03:00,36.8,19.0,30.00,NNE,32,2.0,5.0,48,0.00,,OVC055,0.00,VWS V14.01,2013-03-03 17:03:00,
2013-03-03 12:08:00,36.2,18.4,30.01,ENE,70,1.0,7.0,48,0.00,,OVC055,0.00,VWS V14.01,2013-03-03 17:08:00,
2013-03-03 12:13:00,36.0,18.7,30.01,NNE,31,0.0,7.0,49,0.00,,OVC055,0.00,VWS V14.01,2013-03-03 17:13:00,
2013-03-03 12:18:00,36.4,17.6,30.00,South,174,1.0,7.0,46,0.00,,OVC055,0.00,VWS V14.01,2013-03-03 17:18:00,
2013-03-03 12:23:00,36.9,18.6,30.00,ENE,66,5.0,7.0,47,0.00,,OVC055,0.00,VWS V14.01,2013-03-03 17:23:00,
2013-03-03 12:28:00,36.0,17.7,30.00,NNE,30,4.0,7.0,47,0.00,,OVC055,0.00,VWS V14.01,2013-03-03 17:28:00,
2013-03-03 12:30:00,37.4,19.0,29.98,NE,50,4.0,8.0,47,0.00,,OVC055,0.00,VWS V14.01,2013-03-03 17:30:00,
2013-03-03 12:33:00,35.6,19.3,30.00,NNE,25,2.0,8.0,51,0.00,,OVC055,0.00,VWS V14.01,2013-03-03 17:33:00,
2013-03-03 12:38:00,36.0,18.2,30.00,NNE,20,1.0,8.0,48,0.00,,OVC055,0.00,VWS V14.01,2013-03-03 17:38:00,
2013-03-03 12:43:00,36.1,16.8,29.99,NE,39,1.0,8.0,45,0.00,,OVC055,0.00,VWS V14.01,2013-03-03 17:43:00,
2013-03-03 12:48:00,36.0,16.7,29.99,NE,44,0.0,8.0,45,0.00,,OVC055,0.00,VWS V14.01,2013-03-03 17:48:00,
2013-03-03 12:53:00,36.4,16.6,29.99,North,5,2.0,8.0,44,0.00,,OVC055,0.00,VWS V14.01,2013-03-03 17:53:00,
2013-03-03 12:58:00,37.8,19.4,29.99,NE,53,4.0,8.0,47,0.00,,OVC055,0.00,VWS V14.01,2013-03-03 17:58:00,
2013-03-03 13:00:00,37.2,19.3,29.97,NE,35,7.0,9.0,48,0.00,,OVC055,0.00,VWS V14.01,2013-03-03 18:00:00,
2013-03-03 13:03:00,37.7,17.2,29.99,NE,37,2.0,8.0,43,0.00,,OVC055,0.00,VWS V14.01,2013-03-03 18:03:00,
2013-03-03 13:08:00,36.5,19.2,29.99,East,82,1.0,8.0,49,0.00,,OVC055,0.00,VWS V14.01,2013-03-03 18:08:00,
2013-03-03 13:13:00,36.4,18.1,29.99,NE,40,2.0,8.0,47,0.00,,OVC055,0.00,VWS V14.01,2013-03-03 18:13:00,
2013-03-03 13:18:00,36.6,19.3,29.98,NE,44,5.0,8.0,49,0.00,,OVC055,0.00,VWS V14.01,2013-03-03 18:18:00,
2013-03-03 13:23:00,37.0,18.7,29.98,ENE,62,4.0,8.0,47,0.00,,OVC055,0.00,VWS V14.01,2013-03-03 18:23:00,
2013-03-03 13:28:00,37.4,19.5,29.98,NE,40,6.0,8.0,48,0.00,,OVC055,0.00,VWS V14.01,2013-03-03 18:28:00,
2013-03-03 13:30:00,37.1,20.2,29.97,NE,37,4.0,10.0,50,0.00,,OVC055,0.00,VWS V14.01,2013-03-03 18:30:00,
2013-03-03 13:33:00,36.8,19.5,29.98,ENE,76,3.0,9.0,49,0.00,,OVC055,0.00,VWS V14.01,2013-03-03 18:33:00,
2013-03-03 13:38:00,37.0,19.1,29.98,ENE,77,1.0,9.0,48,0.00,,OVC055,0.00,VWS V14.01,2013-03-03 18:38:00,
2013-03-03 13:43:00,37.0,20.1,29.98,ENE,57,2.0,9.0,50,0.00,,OVC055,0.00,VWS V14.01,2013-03-03 18:43:00,
2013-03-03 13:48:00,37.1,20.2,29.98,NNE,22,5.0,9.0,50,0.00,,OVC055,0.00,VWS V14.01,2013-03-03 18:48:00,
2013-03-03 13:53:00,37.1,18.2,29.98,ENE,67,7.0,9.0,46,0.00,,OVC055,0.00,VWS V14.01,2013-03-03 18:53:00,
2013-03-03 13:58:00,37.1,18.8,29.97,East,86,2.0,9.0,47,0.00,,OVC055,0.00,VWS V14.01,2013-03-03 18:58:00,
2013-03-03 14:00:00,37.8,20.8,29.97,ENE,76,3.0,11.0,50,0.00,,OVC055,0.00,VWS V14.01,2013-03-03 19:00:00,
2013-03-03 14:03:00,37.4,20.5,29.97,ENE,57,1.0,8.0,50,0.00,,OVC055,0.00,VWS V14.01,2013-03-03 19:03:00,
2013-03-03 14:08:00,37.9,20.5,29.97,NNE,33,7.0,8.0,49,0.00,,OVC055,0.00,VWS V14.01,2013-03-03 19:08:00,
2013-03-03 14:13:00,37.5,21.5,29.96,ENE,74,2.0,9.0,52,0.00,,OVC055,0.00,VWS V14.01,2013-03-03 19:13:00,
2013-03-03 14:18:00,37.9,21.4,29.97,NE,48,5.0,10.0,51,0.00,,OVC055,0.00,VWS V14.01,2013-03-03 19:18:00,
2013-03-03 14:23:00,37.1,19.7,29.97,ENE,60,5.0,10.0,49,0.00,,OVC055,0.00,VWS V14.01,2013-03-03 19:23:00,
2013-03-03 14:28:00,37.0,21.5,29.97,NE,51,3.0,10.0,53,0.00,,OVC055,0.00,VWS V14.01,2013-03-03 19:28:00,
2013-03-03 14:30:00,37.5,20.6,29.97,ENE,59,5.0,10.0,50,0.00,,OVC055,0.00,VWS V14.01,2013-03-03 19:30:00,
2013-03-03 14:33:00,37.2,19.8,29.97,NE,39,4.0,9.0,49,0.00,,OVC055,0.00,VWS V14.01,2013-03-03 19:33:00,
2013-03-03 14:38:00,37.3,19.9,29.97,ENE,65,3.0,9.0,49,0.00,,OVC055,0.00,VWS V14.01,2013-03-03 19:38:00,
2013-03-03 14:43:00,37.1,20.2,29.97,NE,42,5.0,11.0,50,0.00,,OVC055,0.00,VWS V14.01,2013-03-03 19:43:00,
2013-03-03 14:48:00,37.6,22.9,29.97,NE,46,4.0,11.0,55,0.00,,OVC055,0.00,VWS V14.01,2013-03-03 19:48:00,
2013-03-03 14:53:00,38.1,21.6,29.97,NE,55,4.0,11.0,51,0.00,,OVC055,0.00,VWS V14.01,2013-03-03 19:53:00,
2013-03-03 14:58:00,37.8,20.4,29.97,ENE,76,3.0,11.0,49,0.00,,OVC055,0.00,VWS V14.01,2013-03-03 19:58:00,
2013-03-03 15:00:00,37.4,22.7,29.98,NE,42,2.0,9.0,55,0.00,,OVC055,0.00,VWS V14.01,2013-03-03 20:00:00,
2013-03-03 15:03:00,37.7,21.2,29.97,NE,48,3.0,8.0,51,0.00,,OVC055,0.00,VWS V14.01,2013-03-03 20:03:00,
2013-03-03 15:08:00,37.6,21.6,29.97,NE,46,9.0,10.0,52,0.00,,OVC055,0.00,VWS V14.01,2013-03-03 20:08:00,
2013-03-03 15:13:00,37.2,21.7,29.97,NE,41,3.0,10.0,53,0.00,,OVC055,0.00,VWS V14.01,2013-03-03 20:13:00,
2013-03-03 15:18:00,37.1,20.7,29.97,NE,49,5.0,10.0,51,0.00,,OVC055,0.00,VWS V14.01,2013-03-03 20:18:00,
2013-03-03 15:23:00,37.3,21.8,29.97,ESE,107,2.0,10.0,53,0.00,,OVC055,0.00,VWS V14.01,2013-03-03 20:23:00,
2013-03-03 15:28:00,37.5,21.5,29.97,ENE,71,3.0,10.0,52,0.00,,OVC055,0.00,VWS V14.01,2013-03-03 20:28:00,
2013-03-03 15:30:00,36.5,21.9,29.98,ENE,75,2.0,13.0,55,0.00,,OVC055,0.00,VWS V14.01,2013-03-03 20:30:00,
2013-03-03 15:33:00,37.1,21.1,29.98,ENE,76,7.0,9.0,52,0.00,,OVC055,0.00,VWS V14.01,2013-03-03 20:33:00,
2013-03-03 15:38:00,36.7,21.2,29.98,ENE,73,4.0,9.0,53,0.00,,OVC055,0.00,VWS V14.01,2013-03-03 20:38:00,
2013-03-03 15:43:00,36.6,21.1,29.98,ENE,57,3.0,9.0,53,0.00,,OVC055,0.00,VWS V14.01,2013-03-03 20:43:00,
2013-03-03 15:48:00,36.8,21.7,29.97,ENE,62,3.0,9.0,54,0.00,,OVC055,0.00,VWS V14.01,2013-03-03 20:48:00,
2013-03-03 15:53:00,36.9,22.3,29.98,ENE,58,0.0,9.0,55,0.00,,OVC055,0.00,VWS V14.01,2013-03-03 20:53:00,
2013-03-03 15:58:00,37.3,22.2,29.98,NNE,26,2.0,9.0,54,0.00,,OVC055,0.00,VWS V14.01,2013-03-03 20:58:00,
2013-03-03 16:00:00,35.3,20.3,29.99,ENE,63,2.0,10.0,54,0.00,,OVC055,0.00,VWS V14.01,2013-03-03 21:00:00,
2013-03-03 16:03:00,37.4,21.9,29.98,ENE,61,5.0,9.0,53,0.00,,OVC055,0.00,VWS V14.01,2013-03-03 21:03:00,
2013-03-03 16:08:00,37.3,21.8,29.98,East,101,2.0,9.0,53,0.00,,OVC055,0.00,VWS V14.01,2013-03-03 21:08:00,
2013-03-03 16:13:00,37.0,21.5,29.98,ENE,60,5.0,10.0,53,0.00,,OVC055,0.00,VWS V14.01,2013-03-03 21:13:00,
2013-03-03 16:18:00,36.6,21.5,29.98,NE,51,6.0,10.0,54,0.00,,OVC055,0.00,VWS V14.01,2013-03-03 21:18:00,
2013-03-03 16:23:00,36.7,21.6,29.98,NE,46,6.0,13.0,54,0.00,,OVC055,0.00,VWS V14.01,2013-03-03 21:23:00,
2013-03-03 16:28:00,36.5,22.3,29.98,ENE,73,2.0,13.0,56,0.00,,OVC055,0.00,VWS V14.01,2013-03-03 21:28:00,
2013-03-03 16:30:00,34.4,19.9,30.00,ENE,67,0.0,7.0,55,0.00,,OVC055,0.00,VWS V14.01,2013-03-03 21:30:00,
2013-03-03 16:33:00,36.6,21.5,29.98,NE,55,4.0,7.0,54,0.00,,OVC055,0.00,VWS V14.01,2013-03-03 21:33:00,
2013-03-03 16:38:00,36.1,20.6,29.98,NE,37,5.0,9.0,53,0.00,,OVC055,0.00,VWS V14.01,2013-03-03 21:38:00,
2013-03-03 16:43:00,35.8,21.2,29.98,ENE,57,0.0,10.0,55,0.00,,OVC055,0.00,VWS V14.01,2013-03-03 21:43:00,
2013-03-03 16:48:00,35.8,20.4,29.98,NE,55,4.0,10.0,53,0.00,,OVC055,0.00,VWS V14.01,2013-03-03 21:48:00,
2013-03-03 16:53:00,35.6,21.0,29.99,NE,49,3.0,10.0,55,0.00,,OVC055,0.00,VWS V14.01,2013-03-03 21:53:00,
2013-03-03 16:58:00,35.4,20.0,29.98,NE,38,6.0,10.0,53,0.00,,OVC055,0.00,VWS V14.01,2013-03-03 21:58:00,
2013-03-03 17:00:00,32.9,19.4,30.01,ENE,61,1.0,5.0,57,0.00,,OVC055,0.00,VWS V14.01,2013-03-03 22:00:00,
2013-03-03 17:03:00,35.2,20.2,29.99,East,101,0.0,7.0,54,0.00,,OVC055,0.00,VWS V14.01,2013-03-03 22:03:00,
2013-03-03 17:08:00,35.2,20.7,29.99,ENE,61,2.0,7.0,55,0.00,,OVC055,0.00,VWS V14.01,2013-03-03 22:08:00,
2013-03-03 17:13:00,35.0,20.0,29.99,NE,36,6.0,7.0,54,0.00,,OVC055,0.00,VWS V14.01,2013-03-03 22:13:00,
2013-03-03 17:18:00,34.9,20.4,29.99,NE,36,1.0,7.0,55,0.00,,OVC055,0.00,VWS V14.01,2013-03-03 22:18:00,
2013-03-03 17:23:00,34.8,20.3,29.99,NE,53,1.0,7.0,55,0.00,,OVC055,0.00,VWS V14.01,2013-03-03 22:23:00,
2013-03-03 17:28:00,34.4,19.5,30.00,ENE,67,1.0,7.0,54,0.00,,OVC055,0.00,VWS V14.01,2013-03-03 22:28:00,
2013-03-03 17:30:00,31.6,19.3,30.02,ENE,59,1.0,5.0,60,0.00,,OVC055,0.00,VWS V14.01,2013-03-03 22:30:00,
2013-03-03 17:32:00,34.2,20.1,30.00,ENE,69,1.0,3.0,56,0.00,,OVC055,0.00,VWS V14.01,2013-03-03 22:32:00,
2013-03-03 17:37:00,33.9,19.9,30.00,NE,48,2.0,3.0,56,0.00,,OVC055,0.00,VWS V14.01,2013-03-03 22:37:00,
2013-03-03 17:42:00,33.6,19.6,30.00,NE,53,3.0,5.0,56,0.00,,OVC055,0.00,VWS V14.01,2013-03-03 22:42:00,
2013-03-03 17:47:00,33.4,19.4,30.00,NE,52,1.0,5.0,56,0.00,,OVC055,0.00,VWS V14.01,2013-03-03 22:47:00,
2013-03-03 17:52:00,33.2,19.6,30.01,East,96,1.0,5.0,57,0.00,,OVC055,0.00,VWS V14.01,2013-03-03 22:52:00,
2013-03-03 17:57:00,33.0,19.4,30.01,ENE,66,0.0,5.0,57,0.00,,OVC055,0.00,VWS V14.01,2013-03-03 22:57:00,
2013-03-03 18:00:00,30.1,18.3,30.03,NE,53,3.0,7.0,61,0.00,,OVC055,0.00,VWS V14.01,2013-03-03 23:00:00,
2013-03-03 18:02:00,32.8,19.7,30.01,ENE,58,3.0,4.0,58,0.00,,OVC055,0.00,VWS V14.01,2013-03-03 23:02:00,
2013-03-03 18:07:00,32.5,19.4,30.01,ENE,58,1.0,4.0,58,0.00,,OVC055,0.00,VWS V14.01,2013-03-03 23:07:00,
2013-03-03 18:12:00,32.2,19.5,30.01,ENE,58,2.0,4.0,59,0.00,,OVC055,0.00,VWS V14.01,2013-03-03 23:12:00,
2013-03-03 18:17:00,32.0,19.3,30.02,ENE,59,3.0,4.0,59,0.00,,OVC055,0.00,VWS V14.01,2013-03-03 23:17:00,
2013-03-03 18:22:00,31.9,19.2,30.02,NE,47,2.0,5.0,59,0.00,,OVC055,0.00,VWS V14.01,2013-03-03 23:22:00,
2013-03-03 18:27:00,31.6,19.3,30.02,ENE,59,2.0,5.0,60,0.00,,OVC055,0.00,VWS V14.01,2013-03-03 23:27:00,
2013-03-03 18:30:00,29.2,17.8,30.05,NE,46,5.0,9.0,62,0.00,,OVC055,0.00,VWS V14.01,2013-03-03 23:30:00,
2013-03-03 18:32:00,31.4,18.7,30.02,ENE,64,3.0,6.0,59,0.00,,OVC055,0.00,VWS V14.01,2013-03-03 23:32:00,
2013-03-03 18:37:00,31.2,18.5,30.02,NE,43,7.0,7.0,59,0.00,,OVC055,0.00,VWS V14.01,2013-03-03 23:37:00,
2013-03-03 18:42:00,31.0,18.8,30.02,NE,55,2.0,7.0,60,0.00,,OVC055,0.00,VWS V14.01,2013-03-03 23:42:00,
2013-03-03 18:47:00,30.7,18.5,30.02,NE,47,4.0,7.0,60,0.00,,OVC055,0.00,VWS V14.01,2013-03-03 23:47:00,
2013-03-03 18:52:00,30.4,18.2,30.03,ENE,59,2.0,7.0,60,0.00,,OVC055,0.00,VWS V14.01,2013-03-03 23:52:00,
2013-03-03 18:57:00,30.2,18.4,30.03,NE,49,1.0,7.0,61,0.00,,OVC055,0.00,VWS V14.01,2013-03-03 23:57:00,
2013-03-03 19:00:00,28.4,17.4,30.05,ENE,63,3.0,8.0,63,0.00,,OVC055,0.00,VWS V14.01,2013-03-04 00:00:00,
2013-03-03 19:02:00,30.1,18.3,30.03,NE,38,4.0,7.0,61,0.00,,OVC055,0.00,VWS V14.01,2013-03-04 00:02:00,
2013-03-03 19:07:00,29.9,18.5,30.04,NNE,31,6.0,7.0,62,0.00,,OVC055,0.00,VWS V14.01,2013-03-04 00:07:00,
2013-03-03 19:12:00,29.6,18.2,30.04,NE,43,4.0,8.0,62,0.00,,OVC055,0.00,VWS V14.01,2013-03-04 00:12:00,
2013-03-03 19:17:00,29.4,17.6,30.04,NE,49,2.0,8.0,61,0.00,,OVC055,0.00,VWS V14.01,2013-03-04 00:17:00,
2013-03-03 19:22:00,29.4,17.6,30.05,NE,42,6.0,8.0,61,0.00,,OVC055,0.00,VWS V14.01,2013-03-04 00:22:00,
2013-03-03 19:27:00,29.3,17.9,30.05,NE,42,4.0,9.0,62,0.00,,OVC055,0.00,VWS V14.01,2013-03-04 00:27:00,
2013-03-03 19:30:00,27.8,17.6,30.06,ENE,57,0.0,6.0,65,0.00,,OVC055,0.00,VWS V14.01,2013-03-04 00:30:00,
2013-03-03 19:32:00,29.1,17.7,30.05,NE,39,3.0,7.0,62,0.00,,OVC055,0.00,VWS V14.01,2013-03-04 00:32:00,
2013-03-03 19:37:00,28.9,17.9,30.05,ENE,65,3.0,7.0,63,0.00,,OVC055,0.00,VWS V14.01,2013-03-04 00:37:00,
2013-03-03 19:42:00,28.8,17.8,30.05,NE,46,3.0,8.0,63,0.00,,OVC055,0.00,VWS V14.01,2013-03-04 00:42:00,
2013-03-03 19:47:00,28.7,17.3,30.05,NE,36,4.0,8.0,62,0.00,,OVC055,0.00,VWS V14.01,2013-03-04 00:47:00,
2013-03-03 19:52:00,28.5,17.9,30.05,NE,42,5.0,8.0,64,0.00,,OVC055,0.00,VWS V14.01,2013-03-04 00:52:00,
2013-03-03 19:57:00,28.4,17.4,30.05,NE,54,4.0,8.0,63,0.00,,OVC055,0.00,VWS V14.01,2013-03-04 00:57:00,
2013-03-03 20:00:00,26.6,17.1,30.07,ENE,57,0.0,1.0,67,0.00,,OVC055,0.00,VWS V14.01,2013-03-04 01:00:00,
2013-03-03 20:02:00,28.4,17.4,30.06,NE,40,4.0,6.0,63,0.00,,OVC055,0.00,VWS V14.01,2013-03-04 01:02:00,
2013-03-03 20:07:00,28.2,17.6,30.05,NE,45,5.0,6.0,64,0.00,,OVC055,0.00,VWS V14.01,2013-03-04 01:07:00,
2013-03-03 20:12:00,28.1,17.1,30.05,NE,44,3.0,6.0,63,0.00,,OVC055,0.00,VWS V14.01,2013-03-04 01:12:00,
2013-03-03 20:17:00,28.0,17.0,30.06,NE,51,2.0,6.0,63,0.00,,OVC055,0.00,VWS V14.01,2013-03-04 01:17:00,
2013-03-03 20:22:00,27.9,17.7,30.06,ENE,57,2.0,6.0,65,0.00,,OVC055,0.00,VWS V14.01,2013-03-04 01:22:00,
2013-03-03 20:27:00,27.8,17.6,30.06,ENE,57,1.0,6.0,65,0.00,,OVC055,0.00,VWS V14.01,2013-03-04 01:27:00,
2013-03-03 20:30:00,26.9,17.1,30.07,NE,36,3.0,4.0,66,0.00,,OVC055,0.00,VWS V14.01,2013-03-04 01:30:00,
2013-03-03 20:32:00,27.7,17.5,30.06,ENE,57,0.0,1.0,65,0.00,,OVC055,0.00,VWS V14.01,2013-03-04 01:32:00,
2013-03-03 20:37:00,27.6,17.4,30.06,ENE,57,0.0,1.0,65,0.00,,OVC055,0.00,VWS V14.01,2013-03-04 01:37:00,
2013-03-03 20:42:00,27.4,17.5,30.06,ENE,57,0.0,1.0,66,0.00,,OVC055,0.00,VWS V14.01,2013-03-04 01:42:00,
2013-03-03 20:47:00,27.2,17.4,30.06,ENE,57,0.0,1.0,66,0.00,,OVC055,0.00,VWS V14.01,2013-03-04 01:47:00,
2013-03-03 20:52:00,26.9,17.4,30.06,ENE,57,0.0,1.0,67,0.00,,OVC055,0.00,VWS V14.01,2013-03-04 01:52:00,
2013-03-03 20:57:00,26.7,17.6,30.06,ENE,57,0.0,1.0,68,0.00,,OVC055,0.00,VWS V14.01,2013-03-04 01:57:00,
2013-03-03 21:00:00,27.1,16.9,30.06,NE,36,4.0,10.0,65,0.00,,OVC055,0.00,VWS V14.01,2013-03-04 02:00:00,
2013-03-03 21:02:00,26.5,17.0,30.06,ENE,57,0.0,2.0,67,0.00,,OVC055,0.00,VWS V14.01,2013-03-04 02:02:00,
2013-03-03 21:07:00,26.4,17.3,30.07,ENE,57,2.0,2.0,68,0.00,,OVC055,0.00,VWS V14.01,2013-03-04 02:07:00,
2013-03-03 21:12:00,26.5,17.0,30.07,NE,42,0.0,3.0,67,0.00,,OVC055,0.00,VWS V14.01,2013-03-04 02:12:00,
2013-03-03 21:17:00,26.5,17.0,30.07,NE,42,0.0,3.0,67,0.00,,OVC055,0.00,VWS V14.01,2013-03-04 02:17:00,
2013-03-03 21:22:00,26.6,16.8,30.07,ENE,57,3.0,4.0,66,0.00,,OVC055,0.00,VWS V14.01,2013-03-04 02:22:00,
2013-03-03 21:27:00,26.9,17.1,30.07,NE,35,2.0,4.0,66,0.00,,OVC055,0.00,VWS V14.01,2013-03-04 02:27:00,
2013-03-03 21:30:00,26.8,17.0,30.06,ENE,72,2.0,9.0,66,0.00,,OVC055,0.00,VWS V14.01,2013-03-04 02:30:00,
2013-03-03 21:32:00,26.9,16.7,30.07,NE,42,2.0,4.0,65,0.00,,OVC055,0.00,VWS V14.01,2013-03-04 02:32:00,
2013-03-03 21:37:00,27.0,16.8,30.07,NNE,14,2.0,5.0,65,0.00,,OVC055,0.00,VWS V14.01,2013-03-04 02:37:00,
2013-03-03 21:42:00,26.9,16.7,30.07,NE,51,3.0,9.0,65,0.00,,OVC055,0.00,VWS V14.01,2013-03-04 02:42:00,
2013-03-03 21:47:00,26.9,16.7,30.06,NE,46,2.0,9.0,65,0.00,,OVC055,0.00,VWS V14.01,2013-03-04 02:47:00,
2013-03-03 21:52:00,27.0,16.8,30.06,NE,42,4.0,9.0,65,0.00,,OVC055,0.00,VWS V14.01,2013-03-04 02:52:00,
2013-03-03 21:57:00,27.1,16.9,30.06,NE,41,8.0,10.0,65,0.00,,OVC055,0.00,VWS V14.01,2013-03-04 02:57:00,
2013-03-03 22:00:00,26.5,16.7,30.06,ENE,63,2.0,7.0,66,0.00,,OVC055,0.00,VWS V14.01,2013-03-04 03:00:00,
2013-03-03 22:02:00,27.1,16.9,30.06,ENE,65,4.0,7.0,65,0.00,,OVC055,0.00,VWS V14.01,2013-03-04 03:02:00,
2013-03-03 22:07:00,27.1,16.9,30.07,ENE,77,2.0,9.0,65,0.00,,OVC055,0.00,VWS V14.01,2013-03-04 03:07:00,
2013-03-03 22:12:00,27.0,16.8,30.06,ENE,57,3.0,9.0,65,0.00,,OVC055,0.00,VWS V14.01,2013-03-04 03:12:00,
2013-03-03 22:17:00,27.0,16.8,30.07,NE,54,1.0,9.0,65,0.00,,OVC055,0.00,VWS V14.01,2013-03-04 03:17:00,
2013-03-03 22:22:00,26.9,17.1,30.07,ENE,64,2.0,9.0,66,0.00,,OVC055,0.00,VWS V14.01,2013-03-04 03:22:00,
2013-03-03 22:27:00,26.8,17.0,30.06,ENE,72,1.0,9.0,66,0.00,,OVC055,0.00,VWS V14.01,2013-03-04 03:27:00,
2013-03-03 22:30:00,25.2,16.5,30.06,ENE,65,0.0,2.0,69,0.00,,OVC055,0.00,VWS V14.01,2013-03-04 03:30:00,
2013-03-03 22:32:00,26.7,16.5,30.07,NE,48,5.0,5.0,65,0.00,,OVC055,0.00,VWS V14.01,2013-03-04 03:32:00,
2013-03-03 22:37:00,26.8,17.0,30.07,ENE,59,1.0,7.0,66,0.00,,OVC055,0.00,VWS V14.01,2013-03-04 03:37:00,
2013-03-03 22:42:00,26.7,16.5,30.06,ENE,59,1.0,7.0,65,0.00,,OVC055,0.00,VWS V14.01,2013-03-04 03:42:00,
2013-03-03 22:47:00,26.6,16.8,30.06,ENE,59,0.0,7.0,66,0.00,,OVC055,0.00,VWS V14.01,2013-03-04 03:47:00,
2013-03-03 22:52:00,26.6,16.8,30.06,ENE,65,0.0,7.0,66,0.00,,OVC055,0.00,VWS V14.01,2013-03-04 03:52:00,
2013-03-03 22:57:00,26.5,16.7,30.06,ENE,63,1.0,7.0,66,0.00,,OVC055,0.00,VWS V14.01,2013-03-04 03:57:00,
2013-03-03 23:00:00,24.0,15.6,30.06,ENE,63,0.0,2.0,70,0.00,,OVC055,0.00,VWS V14.01,2013-03-04 04:00:00,
2013-03-03 23:02:00,26.4,16.6,30.06,ENE,63,1.0,2.0,66,0.00,,OVC055,0.00,VWS V14.01,2013-03-04 04:02:00,
2013-03-03 23:07:00,26.3,16.9,30.06,ENE,63,2.0,2.0,67,0.00,,OVC055,0.00,VWS V14.01,2013-03-04 04:07:00,
2013-03-03 23:12:00,26.1,16.7,30.06,ENE,65,0.0,2.0,67,0.00,,OVC055,0.00,VWS V14.01,2013-03-04 04:12:00,
2013-03-03 23:17:00,25.9,17.1,30.06,ENE,65,0.0,2.0,69,0.00,,OVC055,0.00,VWS V14.01,2013-03-04 04:17:00,
2013-03-03 23:22:00,25.7,17.0,30.06,ENE,65,0.0,2.0,69,0.00,,OVC055,0.00,VWS V14.01,2013-03-04 04:22:00,
2013-03-03 23:27:00,25.4,16.7,30.06,ENE,65,0.0,2.0,69,0.00,,OVC055,0.00,VWS V14.01,2013-03-04 04:27:00,
2013-03-03 23:30:00,22.4,16.9,30.07,ENE,63,0.0,1.0,79,0.00,,OVC055,0.00,VWS V14.01,2013-03-04 04:30:00,
2013-03-03 23:32:00,24.8,16.1,30.06,ENE,65,1.0,1.0,69,0.00,,OVC055,0.00,VWS V14.01,2013-03-04 04:32:00,
2013-03-03 23:37:00,24.7,16.0,30.06,ENE,65,0.0,2.0,69,0.00,,OVC055,0.00,VWS V14.01,2013-03-04 04:37:00,
2013-03-03 23:42:00,24.7,16.0,30.06,ENE,63,1.0,2.0,69,0.00,,OVC055,0.00,VWS V14.01,2013-03-04 04:42:00,
2013-03-03 23:47:00,24.5,16.1,30.06,ENE,63,0.0,2.0,70,0.00,,OVC055,0.00,VWS V14.01,2013-03-04 04:47:00,
2013-03-03 23:52:00,24.2,15.8,30.06,ENE,63,1.0,2.0,70,0.00,,OVC055,0.00,VWS V14.01,2013-03-04 04:52:00,
2013-03-03 23:57:00,24.0,15.3,30.06,ENE,63,0.0,2.0,69,0.00,,OVC055,0.00,VWS V14.01,2013-03-04 04:57:00,